Regional Weather Roundup
Issued by NWS Midland/Odessa, TX

Skip options and go directly to product.
Home | Oldest Version | Previous Version | Current Version | All | Graphics & Text | Save Text | Print | Product List | Glossary On

Skip product version selection by date and time.   
524
ASUS44 KMAF 012010
RWRMAF
MIDLAND AREA WEATHER ROUNDUP
NATIONAL WEATHER SERVICE MIDLAND TX
300 PM CDT TUE SEP 01 2015

...IN SOUTHWEST TEXAS AND SOUTHEAST NEW MEXICO...

CITY           SKY/WX    TMP DP  RH WIND       PRES   REMARKS
ALPINE         SUNNY     94  46  19 N12       30.15F
ANDREWS        FAIR      91  53  26 S15       30.06F
ARTESIA        SUNNY     93  52  24 SE14G21   30.04F
BIG SPRING     SUNNY     90  53  27 SE12      30.05F
CARLSBAD       SUNNY     97  49  19 SE14      30.01F
DRYDEN           N/A     93  62  35 S9        29.99F
FORT STOCKTON  SUNNY     93  56  28 SE13G22   30.02F
GUAD PASS      SUNNY     87  45  23 E7        30.19F
HOBBS          SUNNY     90  50  25 SE15G22   30.08F
MARFA          SUNNY     88  48  25 SW5       30.14F
MIDLAND AIRPK  SUNNY     92  50  23 SE8G14    30.04F
MIDLAND INTL   SUNNY     92  52  25 S17G24    30.04F
ODESSA         NOT AVBL
PECOS          SUNNY     97  51  21 E12G18    29.98F
PRESIDIO       NOT AVBL
SEMINOLE       SUNNY     93  50  23 S13G23    30.07F
SNYDER         MOSUNNY   91  56  30 SE12G20   30.04F
WINK           SUNNY     94  50  22 SE10G21   30.00F
$$
...OTHER STATIONS IN TEXAS...

CITY           SKY/WX    TMP DP  RH WIND       PRES   REMARKS
ABILENE        MOSUNNY   91  59  33 SE20      30.02F
AMARILLO       SUNNY     90  58  33 S16G28    30.07F
AUSTIN         PTSUNNY   89  68  49 VRB7      29.98F
BROWNSVILLE    PTSUNNY   88  75  65 E17       29.94F
CORPUS CHRISTI LGT RAIN  86  73  65 E24       29.96F
DALLAS FTW     PTSUNNY   93  62  35 SE7       29.99F
DEL RIO        SUNNY     93  64  38 SE9G17    29.94F
EL PASO        MOSUNNY   94  44  17 VRB3      30.04F
HOUSTON INT    CLOUDY    80  71  74 E8        30.04F
LUBBOCK        MOSUNNY   91  54  28 S13G29    30.06F
SAN ANGELO     MOSUNNY   94  57  28 VRB7      30.00F
SAN ANTONIO    PTSUNNY   92  66  42 VRB3      29.98F
WACO           MOSUNNY   93  65  39 S10       29.99F
WICHITA FALLS  NOT AVBL
$$
...OTHER LOCATIONS IN NEW MEXICO...

CITY           SKY/WX    TMP DP  RH WIND       PRES   REMARKS
ALAMAGORDO     MOSUNNY   93  39  15 W10       30.06F
ALBUQUERQUE    PTSUNNY   86  43  22 W7        30.16F
CANNON AFB     SUNNY     91  52  26 S15G25    30.08F
CLOVIS         SUNNY     90  54  29 S20G31    30.11S
HOLLOMAN AFB   MOSUNNY   95  34  11 W8        30.04F
ROSWELL        SUNNY     94  49  21 S13G22    30.04F
RUIDOSO        MOSUNNY   82  39  21 MISG      30.28F
SANTA FE       MOSUNNY   83  42  23 W8G17     30.22F
TRUTH OR CONSE MOSUNNY   89  45  21 SW6       30.10F
TUCUMCARI      SUNNY     95  51  22 S13G20    30.04F
$$

USA.gov is the U.S. government's official web portal to all federal, state and local government web resources and services.